Cloquet, MN

4:52 PM CDT on August 16, 2017 (GMT -0500)
Cloquet Carlton County

Weather History for KCOQ - March, 2014

Change the Weather History Date:

Thursday, March 13, 2014

  Actual Average Record
Temperature  
Mean Temperature 26 °F -  
Max Temperature 44 °F 31 °F 57 °F (2012)
Min Temperature 8 °F 13 °F 0 °F (2009)
Degree Days  
Heating Degree Days 39    
Moisture  
Dew Point 20 °F    
Average Humidity 68    
Maximum Humidity 87    
Minimum Humidity 49    
Precipitation  
Precipitation 0.00 in - - ()
Sea Level Pressure  
Sea Level Pressure 29.66 in    
Wind  
Wind Speed 7 mph (SSW)    
Max Wind Speed 15 mph    
Max Gust Speed 25 mph    
Visibility 10 miles    
Events      
Averages and records for this station are not official NWS values.
T = Trace of Precipitation, MM = Missing Value Source: NWS Daily Summary

Daily Weather History Graph

Daily Weather History Graph

Search for Another Location

Airport or City:

Trip Planner

Search our weather history database for the weather conditions in past years. The results will help you decide how hot, cold, wet, or windy it might be!

Date:

Astronomy

Mar. 13, 2014 Rise Set
Actual Time 7:26 AM CDT 7:13 PM CDT
Civil Twilight 6:56 AM CDT 7:43 PM CDT
Nautical Twilight 6:21 AM CDT 8:18 PM CDT
Astronomical Twilight 5:45 AM CDT 8:54 PM CDT
Moon 4:32 PM CDT (3/13) 5:42 AM CDT (3/13)
Length of Visible Light 12h 46m
Length of Day
11h 46m
Waxing Gibbous, 91% of the Moon is Illuminated
Mar 13
Waxing Gibbous
Mar 16
Full
Mar 23
Last Quarter
Mar 30
New
Apr 7
First Quarter

Hourly Weather History & Observations

Time (CDT) Temp. Windchill Dew Point Humidity Pressure Visibility Wind Dir Wind Speed Gust Speed Precip Events Conditions
12:17 AM 8.6 °F - 1.4 °F 73% 29.94 in 10.0 mi Calm Calm - N/A   Clear
12:36 AM 10.4 °F 4.0 °F 1.4 °F 67% 29.94 in 10.0 mi ESE 3.5 mph - N/A   Clear
12:56 AM 8.6 °F 2.0 °F 1.4 °F 73% 29.93 in 10.0 mi ESE 3.5 mph - N/A   Clear
1:17 AM 8.6 °F - 1.4 °F 73% 29.91 in 10.0 mi Calm Calm - N/A   Clear
1:36 AM 10.4 °F - 1.4 °F 67% 29.90 in 10.0 mi Calm Calm - N/A   Mostly Cloudy
1:56 AM 10.4 °F - 1.4 °F 67% 29.89 in 10.0 mi Calm Calm - N/A   Overcast
2:17 AM 10.4 °F 4.0 °F 1.4 °F 67% 29.89 in 10.0 mi South 3.5 mph - N/A   Overcast
2:36 AM 12.2 °F 0.7 °F 3.2 °F 67% 29.89 in 10.0 mi SSW 8.1 mph - N/A   Overcast
2:56 AM 15.8 °F 5.1 °F 3.2 °F 58% 29.88 in 10.0 mi South 8.1 mph - N/A   Overcast
3:16 AM 15.8 °F 5.1 °F 5.0 °F 62% 29.87 in 10.0 mi South 8.1 mph - N/A   Overcast
3:36 AM 15.8 °F 5.1 °F 6.8 °F 68% 29.86 in 10.0 mi South 8.1 mph - N/A   Overcast
3:57 AM 17.6 °F 8.2 °F 6.8 °F 63% 29.85 in 10.0 mi South 6.9 mph - N/A   Overcast
4:16 AM 17.6 °F 8.2 °F 6.8 °F 63% 29.84 in 10.0 mi South 6.9 mph - N/A   Overcast
4:36 AM 17.6 °F 7.3 °F 6.8 °F 63% 29.82 in 10.0 mi South 8.1 mph - N/A   Overcast
4:57 AM 17.6 °F 7.3 °F 8.6 °F 68% 29.81 in 10.0 mi South 8.1 mph - N/A   Overcast
5:16 AM 19.4 °F 9.5 °F 8.6 °F 63% 29.80 in 10.0 mi South 8.1 mph - N/A   Overcast
5:36 AM 19.4 °F 7.9 °F 10.4 °F 68% 29.79 in 10.0 mi South 10.4 mph - N/A   Overcast
5:57 AM 19.4 °F 7.9 °F 12.2 °F 74% 29.78 in 10.0 mi SSW 10.4 mph - N/A   Overcast
6:16 AM 19.4 °F 7.2 °F 12.2 °F 74% 29.78 in 10.0 mi South 11.5 mph - N/A   Overcast
6:36 AM 21.2 °F 9.5 °F 12.2 °F 68% 29.77 in 10.0 mi SSW 11.5 mph - N/A   Overcast
6:57 AM 21.2 °F 10.9 °F 12.2 °F 68% 29.77 in 10.0 mi SSW 9.2 mph 18.4 mph N/A   Overcast
7:16 AM 21.2 °F 11.7 °F 12.2 °F 68% 29.77 in 10.0 mi SSW 8.1 mph - N/A   Overcast
7:36 AM 21.2 °F 12.6 °F 12.2 °F 68% 29.78 in 10.0 mi SSW 6.9 mph - N/A   Overcast
7:57 AM 21.2 °F 13.6 °F 14.0 °F 74% 29.77 in 10.0 mi SSW 5.8 mph - N/A   Overcast
8:16 AM 21.2 °F 12.6 °F 15.8 °F 80% 29.77 in 10.0 mi SSW 6.9 mph - N/A   Overcast
8:37 AM 21.2 °F 11.7 °F 15.8 °F 80% 29.76 in 10.0 mi SSW 8.1 mph - N/A   Overcast
8:57 AM 21.2 °F 10.1 °F 15.8 °F 80% 29.75 in 10.0 mi SSW 10.4 mph - N/A   Overcast
9:16 AM 21.2 °F 9.5 °F 17.6 °F 86% 29.75 in 10.0 mi SSW 11.5 mph - N/A   Overcast
9:37 AM 23.0 °F 11.7 °F 17.6 °F 80% 29.74 in 10.0 mi SSW 11.5 mph - N/A   Overcast
9:57 AM 23.0 °F 14.7 °F 19.4 °F 86% 29.74 in 10.0 mi SSW 6.9 mph - N/A   Overcast
10:16 AM 24.8 °F 16.1 °F 19.4 °F 80% 29.73 in 7.0 mi SSW 8.1 mph - N/A   Overcast
10:37 AM 24.8 °F 16.1 °F 19.4 °F 80% 29.73 in 7.0 mi SSW 8.1 mph - N/A   Overcast
10:56 AM 24.8 °F 16.9 °F 19.4 °F 80% 29.72 in 7.0 mi SW 6.9 mph - N/A   Overcast
11:17 AM 26.6 °F 18.2 °F 21.2 °F 80% 29.70 in 7.0 mi South 8.1 mph - N/A   Mostly Cloudy
11:37 AM 26.6 °F 19.1 °F 21.2 °F 80% 29.68 in 7.0 mi SSE 6.9 mph - N/A   Scattered Clouds
11:56 AM 28.4 °F 20.4 °F 21.2 °F 74% 29.68 in 10.0 mi SSW 8.1 mph - N/A   Clear
12:17 PM 30.2 °F 21.9 °F 23.0 °F 75% 29.68 in 10.0 mi SW 9.2 mph - N/A   Clear
12:37 PM 30.2 °F 22.6 °F 23.0 °F 75% 29.67 in 10.0 mi SSW 8.1 mph - N/A   Clear
12:56 PM 32.0 °F 24.8 °F 23.0 °F 69% 29.66 in 10.0 mi South 8.1 mph - N/A   Clear
1:17 PM 33.8 °F 27.7 °F 24.8 °F 70% 29.65 in 10.0 mi SSW 6.9 mph - N/A   Clear
1:37 PM 35.6 °F 29.9 °F 24.8 °F 65% 29.64 in 10.0 mi SSW 6.9 mph - N/A   Clear
1:56 PM 35.6 °F 28.6 °F 24.8 °F 65% 29.63 in 10.0 mi South 9.2 mph - N/A   Clear
2:17 PM 37.4 °F 30.8 °F 24.8 °F 60% 29.62 in 10.0 mi SSW 9.2 mph - N/A   Clear
2:37 PM 39.2 °F 32.0 °F 24.8 °F 56% 29.60 in 10.0 mi SSW 11.5 mph - N/A   Clear
2:56 PM 39.2 °F 33.0 °F 24.8 °F 56% 29.59 in 10.0 mi SSW 9.2 mph - N/A   Clear
3:17 PM 39.2 °F 32.0 °F 26.6 °F 61% 29.58 in 10.0 mi SSW 11.5 mph - N/A   Clear
3:37 PM 41.0 °F 33.1 °F 26.6 °F 57% 29.57 in 10.0 mi SSW 15.0 mph - N/A   Clear
3:56 PM 41.0 °F 33.1 °F 26.6 °F 57% 29.56 in 10.0 mi SSW 15.0 mph 18.4 mph N/A   Clear
4:17 PM 42.8 °F 35.4 °F 26.6 °F 53% 29.55 in 10.0 mi SSW 15.0 mph 20.7 mph N/A   Clear
4:37 PM 42.8 °F 37.0 °F 26.6 °F 53% 29.54 in 10.0 mi South 10.4 mph - N/A   Clear
4:56 PM 42.8 °F 36.6 °F 26.6 °F 53% 29.53 in 10.0 mi South 11.5 mph 20.7 mph N/A   Clear
5:17 PM 44.6 °F 37.8 °F 26.6 °F 49% 29.52 in 10.0 mi SSW 15.0 mph 20.7 mph N/A   Clear
5:37 PM 44.6 °F 37.8 °F 28.4 °F 53% 29.50 in 10.0 mi SSW 15.0 mph 21.9 mph N/A   Clear
5:56 PM 42.8 °F 35.8 °F 28.4 °F 57% 29.50 in 10.0 mi South 13.8 mph 25.3 mph N/A   Clear
6:17 PM 42.8 °F 35.4 °F 28.4 °F 57% 29.48 in 10.0 mi SSW 15.0 mph 18.4 mph N/A   Clear
6:36 PM 42.8 °F 37.0 °F 28.4 °F 57% 29.49 in 10.0 mi SSW 10.4 mph - N/A   Clear
6:56 PM 42.8 °F 36.2 °F 28.4 °F 57% 29.49 in 10.0 mi SSW 12.7 mph 18.4 mph N/A   Clear
7:17 PM 42.8 °F 38.0 °F 28.4 °F 57% 29.49 in 10.0 mi SSW 8.1 mph - N/A   Clear
7:36 PM 42.8 °F 38.6 °F 28.4 °F 57% 29.49 in 10.0 mi SSW 6.9 mph - N/A   Clear
7:57 PM 42.8 °F 38.6 °F 30.2 °F 61% 29.49 in 10.0 mi SSW 6.9 mph - N/A   Clear
8:17 PM 41.0 °F 34.7 °F 30.2 °F 65% 29.47 in 10.0 mi SSW 10.4 mph 16.1 mph N/A   Clear
8:36 PM 41.0 °F 34.3 °F 30.2 °F 65% 29.46 in 10.0 mi SSW 11.5 mph 17.3 mph N/A   Clear
8:57 PM 41.0 °F 34.7 °F 30.2 °F 65% 29.46 in 10.0 mi SSW 10.4 mph 17.3 mph N/A   Clear
9:16 PM 41.0 °F 34.7 °F 32.0 °F 70% 29.45 in 10.0 mi SSW 10.4 mph - N/A   Clear
9:37 PM 41.0 °F 34.7 °F 33.8 °F 76% 29.45 in 10.0 mi SSW 10.4 mph - N/A   Clear
9:57 PM 41.0 °F 34.7 °F 33.8 °F 76% 29.44 in 10.0 mi SSW 10.4 mph - N/A   Clear
10:16 PM 41.0 °F 35.2 °F 33.8 °F 76% 29.44 in 10.0 mi SSW 9.2 mph 16.1 mph N/A   Clear
10:37 PM 39.2 °F 33.0 °F 33.8 °F 81% 29.43 in 10.0 mi SSW 9.2 mph - N/A   Clear
10:57 PM 39.2 °F 33.0 °F 33.8 °F 81% 29.42 in 10.0 mi SW 9.2 mph - N/A   Clear
11:16 PM 39.2 °F 33.0 °F 33.8 °F 81% 29.42 in 10.0 mi SSW 9.2 mph - N/A   Clear
11:37 PM 39.2 °F 34.2 °F 35.6 °F 87% 29.42 in 10.0 mi SW 6.9 mph - N/A   Clear
11:57 PM 39.2 °F 34.2 °F 35.6 °F 87% 29.41 in 10.0 mi WSW 6.9 mph - N/A   Clear